Location: Newark
(39.8500°N, 99.5772°W)
Time: 22:18:21
(UTC+00:00)

OTV 5 (USA 277) - Pass Details

Date: 26 August 2019
Orbit: 295 x 339 km, 54.5° (Epoch: 08 September)

Event Time Altitude Azimuth Distance (km) Brightness Sun altitude
Rises 03:17:00 0° 268° (W) 1,998 ? -21.1°
Reaches altitude 10° 03:19:36 10° 297° (WNW) 1,169 ? -21.5°
Maximum altitude 03:21:02 14° 331° (NNW) 993 ? -21.7°
Drops below altitude 10° 03:22:27 10° 4° (N) 1,166 ? -21.9°
Enters shadow 03:22:43 - 9° (N) 1,231 ? -22.0°
